Location: Newark
(49.8348°N, 24.0280°E)
Time: 15:24:21
(UTC+00:00)

Transit 2A - Pass Details

Date: 20 January 2020
Orbit: 599 x 959 km, 66.7° (Epoch: 25 February)

Event Time Altitude Azimuth Distance (km) Brightness Sun altitude
Rises 02:31:46 0° 327° (NNW) 2,905 - -35.0°
Reaches altitude 10° 02:34:18 10° 340° (NNW) 2,030 - -34.6°
Maximum altitude 02:38:09 26° 38° (NE) 1,304 - -34.0°
Exits shadow 02:38:51 25° 53° (NE) 1,345 7.7 -33.9°
Drops below altitude 10° 02:42:16 10° 95° (E) 2,174 9.1 -33.3°
Sets 02:45:04 0° 108° (ESE) 3,157 10.1 -32.9°
